Location: Grieser Field
(39.7333°N, 81.7975°W)
Time: 15:08:24
(UTC-04:00)

MOS 1-B - Visible Passes

Search period start: 19 April 2015 00:00
Search period end: 29 April 2015 00:00
Orbit: 905 x 915 km, 99.2° (Epoch: 18 April)

Date Brightness Start Highest point End Pass type
(mag) Time Alt. Az. Time Alt. Az. Time Alt. Az.
19 Apr 4.5 03:49:25 10° NNE 03:55:10 66° ESE 03:55:49 61° SE visible
19 Apr 5.9 05:32:36 10° NNW 05:36:34 19° WNW 05:39:05 14° W visible
20 Apr 4.4 03:54:55 10° NNE 04:00:42 73° ESE 04:01:32 63° SSE visible
20 Apr 6.0 05:38:23 10° NNW 05:42:02 17° WNW 05:44:48 12° W visible
21 Apr 4.3 04:00:25 10° NNE 04:06:14 81° ESE 04:07:15 62° S visible
21 Apr 6.1 05:44:10 10° NNW 05:47:29 15° WNW 05:50:31 10° W visible
22 Apr 6.8 02:27:34 10° ENE 02:28:58 11° E 02:29:41 11° E visible
22 Apr 4.2 04:05:57 10° NNE 04:11:45 89° E 04:12:57 59° SSW visible
22 Apr 6.2 05:50:02 10° NNW 05:52:57 14° WNW 05:55:32 10° W visible
23 Apr 6.7 02:32:19 10° ENE 02:34:36 13° E 02:35:24 13° E visible
23 Apr 4.2 04:11:28 10° NNE 04:17:17 83° WNW 04:18:39 55° SSW visible
23 Apr 6.2 05:56:00 10° NW 05:58:23 12° WNW 06:00:27 10° W visible
24 Apr 6.5 02:37:19 10° ENE 02:40:13 14° E 02:41:06 14° E visible
24 Apr 4.3 04:17:00 10° N 04:22:47 75° WNW 04:24:21 49° SW visible
24 Apr 6.3 06:02:11 10° NW 06:03:49 11° WNW 06:05:07 10° WNW visible
25 Apr 6.4 02:42:26 10° NE 02:45:49 16° E 02:46:47 16° ESE visible
25 Apr 4.3 04:22:33 10° N 04:28:18 67° WNW 04:30:03 44° SW visible
26 Apr 6.3 02:47:38 10° NE 02:51:26 18° E 02:52:29 18° ESE visible
26 Apr 4.4 04:28:07 10° N 04:33:48 60° WNW 04:35:45 40° SW visible
27 Apr 6.2 02:52:54 10° NE 02:57:02 21° E 02:58:11 20° ESE visible
27 Apr 4.5 04:33:40 10° N 04:39:18 54° WNW 04:41:27 35° SW visible
28 Apr 6.0 02:58:12 10° NE 03:02:38 23° E 03:03:53 22° ESE visible
28 Apr 4.7 04:39:14 10° N 04:44:48 49° WNW 04:47:09 31° SW visible
